Weather in Dunkerque

France     51°01′46″N   2°22′49″E
temp.,
°C
wind,
m/s
gust,
m/s
humid.,
%
clouds,
%
prec.,
mm/h
press.,
hPa
HPBL,
m
23 october, sat
sat2323:00+12wnw5773100 0.6 1024459
02:00+12nw457776 0.9 1025300
05:00+11wnw237848 0.2 1025205
08:00+9ssw33855 0.3 102580
11:00+11ssw347136 0.0 1026205
14:00+15sw355788 0.0 10261194
17:00+15ssw245713 0.0 10251065
20:00+11ssw468310 0.0 1025143
24 october, sun
sun2423:00+9s45862 0.0 1026115
02:00+8s47852 0.0 1025138
05:00+7sse58815 0.0 1023167
08:00+6sse59855 0.0 1022193
11:00+10s610745 0.0 1022366
14:00+14ssw685672 0.0 1021788
17:00+14ssw5757100 0.0 1019649
20:00+10ssw4773100 0.0 1019177
25 october, mon
mon2523:00+9s4874100 0.0 1019159
02:00+10s5975100 0.0 1018183
05:00+11s59825 0.0 1017224
08:00+9s5109544 0.1 1017220
11:00+13ssw6108588 0.0 1018433
14:00+16sw7971100 0.1 10181007
17:00+15sw61076100 0.9 1017839
20:00+13sw4989100 3.9 1018404
26 october, tue
tue2623:00+11sw479099 1.6 1019217
02:00+11wsw47905 2.1 1019214
05:00+11w3585100 0.1 1019221
08:00+10wsw358669 0.1 1020256
11:00+12sw3580100 0.0 1022291
14:00+15sw4669100 0.0 10221017
17:00+15wsw4773100 0.1 1021508
20:00+12ssw4690100 0.1 1022178
27 october, wed
wed2723:00+12ssw4893100 0.0 1023198
02:00+11ssw489394 0.0 1022180
05:00+10ssw479222 0.0 1022154
08:00+10s48939 0.0 1022155
11:00+13s58825 0.0 1023266
14:00+17ssw576948 0.0 1022607
17:00+17ssw4770100 0.0 1021356
20:00+13s35875 0.0 102283